This is the latest recevied weather packets stored in our database for station/object RW6A-13. If no packets are shown the sender has not sent any weather packets the latest 10 day(s).
| Time | Temp. | Humidity | Pressure | Rain* | Wind** | Luminosity | Snow |
|---|---|---|---|---|---|---|---|
| 1777531088 | 15° C | 61% | 1015.3 hPa | 0 mm | - | - | - |
| 1777530785 | 15.56° C | 61% | 1015.3 hPa | 0 mm | - | - | - |
| 1777530486 | 14.44° C | 61% | 1015.3 hPa | 0 mm | - | - | - |
| 1777530185 | 15° C | 61% | 1015.2 hPa | 0 mm | - | - | - |
| 1777529884 | 15° C | 61% | 1015.2 hPa | 0 mm | - | - | - |
| 1777529585 | 15° C | 60% | 1015 hPa | 0 mm | - | - | - |
| 1777529285 | 14.44° C | 64% | 1015 hPa | 0 mm | - | - | - |
| 1777528984 | 13.89° C | 63% | 1014.9 hPa | 0 mm | - | - | - |
| 1777528684 | 13.89° C | 66% | 1015.1 hPa | 0 mm | - | - | - |
| 1777528383 | 13.33° C | 64% | 1015.1 hPa | 0 mm | - | - | - |
| 1777528084 | 13.33° C | 66% | 1015.1 hPa | 0 mm | - | - | - |
| 1777527784 | 13.33° C | 65% | 1015.1 hPa | 0 mm | - | - | - |
| 1777527484 | 13.33° C | 66% | 1015.2 hPa | 0 mm | - | - | - |
| 1777527182 | 12.78° C | 67% | 1015.2 hPa | 0 mm | - | - | - |
| 1777526881 | 12.78° C | 67% | 1015.2 hPa | 0 mm | - | - | - |
| 1777526582 | 12.22° C | 67% | 1015.2 hPa | 0 mm | - | - | - |
| 1777526282 | 12.22° C | 66% | 1015.1 hPa | 0 mm | - | - | - |
| 1777525981 | 12.78° C | 67% | 1015.2 hPa | 0 mm | - | - | - |
| 1777525683 | 12.22° C | 69% | 1015.2 hPa | 0 mm | - | - | - |
| 1777525380 | 11.67° C | 70% | 1015.2 hPa | 0 mm | - | - | - |
| 1777525081 | 11.67° C | 69% | 1015.1 hPa | 0 mm | - | - | - |
| 1777524780 | 11.67° C | 71% | 1015.1 hPa | 0 mm | - | - | - |
| 1777524480 | 11.11° C | 72% | 1015.1 hPa | 0 mm | - | - | - |
| 1777524180 | 10.56° C | 75% | 1014.9 hPa | 0 mm | - | - | - |
| 1777523880 | 10° C | 74% | 1014.9 hPa | 0 mm | - | - | - |
* Rain latest hour (hover to see other rain measurements)
** Current wind speed in m/s (hover to see current wind gust speed)